Wind_Speed
7 7 7 8 8 8 9 9 9 9 9 10 10 10 10 10 10 10 10 10 10 10 10 10 10 10 10 10 9 9 9 8 8 8 8 8 8 7 7 7 6 6 6
9 9 9 9 9 10 10 10 10 10 11 11 11 11 12 12 11 11 11 11 11 11 11 11 11 11 11 11 11 10 10 10 10 9 10 9 8 8 8 7 7 7 7
10 10 10 10 10 11 11 12 12 12 12 12 13 13 13 13 13 13 13 13 12 12 12 12 12 12 12 12 12 12 12 11 11 11 11 11 10 9 9 8 8 8 7
11 11 12 12 12 12 13 13 13 14 14 14 14 14 14 14 14 14 14 14 14 14 14 13 13 13 13 13 13 13 13 13 13 12 12 12 12 11 11 10 10 10 9
12 13 13 13 14 14 14 15 15 15 15 15 15 15 16 16 16 16 16 15 15 15 15 15 15 15 14 14 14 14 14 14 14 14 14 13 13 12 12 12 12 11 11
14 14 15 15 15 15 16 16 16 16 17 17 16 16 16 17 17 17 17 17 16 16 16 16 16 16 16 15 15 15 15 15 16 15 15 14 14 14 13 13 13 13 13
15 16 16 16 17 17 17 18 18 18 18 17 17 17 17 18 18 18 18 19 19 18 18 18 18 18 17 17 17 17 16 16 17 16 16 16 16 15 15 15 15 14 14
17 17 18 18 18 19 19 19 19 19 19 18 18 19 19 19 19 19 20 20 20 20 20 19 19 19 19 19 19 19 18 18 18 18 18 17 17 17 17 16 17 16 16
18 19 19 20 20 20 20 20 20 20 20 20 20 20 20 21 21 22 21 21 21 22 22 22 21 21 21 21 21 20 20 20 19 19 19 19 19 19 19 19 18 18 18
20 20 21 21 21 21 21 21 21 21 21 22 21 21 22 22 23 23 23 23 24 24 24 24 24 23 23 23 23 23 23 22 22 21 21 21 21 21 21 21 21 20 19
22 22 22 23 23 23 23 23 23 23 23 23 23 23 23 24 25 25 25 26 26 26 27 27 27 26 26 25 25 25 25 25 25 24 23 23 23 22 22 23 22 22 21
24 24 24 25 25 25 25 25 25 25 25 25 25 25 26 26 27 27 28 28 29 29 29 29 30 29 29 29 28 28 28 28 28 27 27 26 25 25 24 24 24 24 23
26 27 26 27 27 28 28 28 28 28 27 27 27 28 28 29 29 30 30 31 31 31 31 31 32 32 32 32 32 31 31 31 30 30 29 29 28 27 26 26 25 25 25
29 29 29 29 30 30 30 30 30 30 30 29 29 29 30 30 31 32 32 33 33 33 34 34 34 34 35 35 34 34 34 33 33 33 32 31 30 29 29 28 28 27 26
31 32 32 32 32 32 32 32 32 32 32 32 32 32 32 32 33 34 34 34 35 36 36 36 36 36 36 37 36 36 36 36 35 35 34 34 33 32 31 30 29 28 28
33 34 34 35 35 35 35 35 36 36 35 35 34 34 35 35 36 36 36 36 37 38 38 39 39 38 38 37 38 38 38 38 38 37 37 36 35 34 33 32 31 30 29
34 35 36 36 37 37 38 38 38 38 38 37 37 37 38 38 38 38 39 39 39 40 41 41 41 40 40 40 40 39 39 39 40 40 39 39 38 37 36 34 34 33 32
37 37 38 38 39 39 39 40 39 40 40 40 39 40 40 40 40 40 40 41 41 41 42 42 42 42 41 41 41 41 41 41 41 41 41 40 40 39 38 37 36 35 34
39 39 39 39 39 40 41 41 41 41 41 41 41 41 42 42 42 42 42 42 42 42 42 42 42 42 42 42 42 42 42 43 42 42 42 41 41 40 40 39 38 37 36
40 40 40 40 41 42 43 43 43 43 43 43 43 43 43 43 44 44 44 44 44 44 44 44 44 43 43 42 43 43 43 44 44 44 44 43 42 42 42 42 41 40 39
41 41 42 43 43 43 43 44 44 44 44 44 44 44 44 44 45 45 45 45 46 46 45 46 46 46 45 44 44 44 44 44 45 45 45 45 45 44 44 43 43 42 41
42 43 43 44 45 45 45 45 46 46 46 47 46 46 46 46 46 46 47 46 47 47 47 47 47 47 47 48 47 46 45 45 45 46 46 46 46 46 45 45 45 44 44
43 44 44 45 46 47 47 47 48 48 48 48 49 49 48 48 48 48 48 49 48 49 49 49 48 48 48 48 48 48 47 47 47 47 47 47 48 48 47 47 47 46 45
44 45 45 46 47 47 47 48 49 50 50 50 51 51 51 51 51 50 50 50 50 51 50 50 51 50 50 49 49 50 50 49 49 48 49 49 49 50 49 49 48 47 46
45 46 46 47 47 48 48 49 49 50 50 50 51 51 52 52 52 52 51 51 51 52 51 52 52 51 51 51 50 51 51 50 51 51 50 49 49 50 50 50 50 48 48
45 46 46 47 48 48 49 49 49 50 50 50 51 52 52 53 53 53 52 52 53 52 52 53 53 53 53 53 51 51 51 51 51 52 51 50 50 51 51 51 51 51 50
Wind_Direction
281 283 285 285 285 286 287 286 284 282 279 277 278 278 275 276 277 275 275 274 272 272 270 267 267 267 268 268 267 266 264 260 258 256 256 257 253 248 247 248 248 247 245
281 283 285 286 287 286 286 286 285 283 280 277 276 276 275 274 273 272 273 273 271 272 271 267 266 268 269 267 265 264 265 265 262 259 258 257 252 248 247 249 249 249 247
279 281 282 284 285 285 285 284 284 283 281 278 276 275 274 274 274 272 272 271 270 270 269 268 268 269 268 265 263 261 260 261 261 260 256 254 252 249 248 248 250 251 249
280 280 281 281 283 284 284 283 282 282 281 279 276 274 273 273 274 273 273 271 270 268 267 267 268 270 269 266 263 261 260 258 258 258 257 256 253 250 248 248 250 249 249
278 279 280 282 283 283 284 283 282 281 279 277 276 274 273 272 272 272 271 270 270 269 269 268 268 268 268 267 264 262 260 257 255 256 256 257 255 252 250 250 250 250 250
280 280 281 282 282 283 284 284 283 282 280 277 276 275 273 272 272 271 270 269 269 269 269 269 268 267 268 266 265 263 262 258 256 257 257 257 256 254 251 251 251 251 251
279 280 281 282 283 283 284 285 284 283 281 278 276 275 274 272 272 270 269 268 267 267 268 268 266 266 266 265 265 264 263 260 256 257 257 256 255 255 254 252 253 252 250
277 278 279 280 281 283 285 285 284 282 281 277 275 275 273 273 272 272 270 268 267 267 267 267 266 265 265 264 264 264 263 262 259 256 257 257 255 254 254 253 253 254 252
276 276 277 279 281 282 284 285 284 282 281 278 275 274 273 272 271 271 270 269 268 267 267 265 265 264 264 263 263 263 263 261 260 257 256 256 255 255 254 254 255 254 253
275 275 276 277 279 281 283 284 284 283 281 278 275 273 272 272 271 271 270 269 268 267 268 266 264 264 264 263 263 262 261 259 258 258 257 256 255 255 254 254 254 252 251
275 275 275 277 278 280 281 282 282 283 281 278 275 273 272 271 270 270 270 269 268 268 268 266 264 264 263 263 262 261 260 259 257 257 257 256 255 255 255 255 254 252 250
275 276 276 277 278 279 279 280 280 281 280 278 276 274 273 271 271 271 271 270 269 269 268 266 264 263 263 262 261 260 260 259 257 257 257 256 255 254 254 254 253 252 250
275 275 276 276 277 278 278 278 278 279 278 277 276 274 273 271 270 270 271 270 270 269 269 267 265 264 264 262 261 260 260 259 257 256 256 255 254 253 253 252 253 252 251
275 275 275 275 276 276 277 276 276 277 277 277 276 275 273 272 271 270 271 271 270 269 269 268 268 266 264 263 261 260 258 257 255 254 254 254 254 252 251 251 251 251 250
276 275 275 275 276 276 275 275 275 276 276 276 276 276 274 272 271 271 271 271 271 271 270 269 269 268 266 263 260 259 258 256 254 253 253 252 252 251 250 250 250 251 249
277 276 276 275 275 275 275 274 274 275 275 274 275 276 276 274 272 272 272 272 272 272 271 270 269 268 266 264 262 260 258 256 254 253 252 251 251 250 249 249 249 249 249
278 278 276 275 275 275 275 275 274 274 274 274 274 275 275 276 274 272 272 272 272 271 271 270 269 267 265 264 262 260 258 256 254 253 252 250 250 249 249 249 248 248 249
279 279 278 276 276 276 276 275 274 273 273 273 274 274 275 276 276 274 273 272 272 271 270 269 267 266 265 263 262 261 258 256 254 252 251 249 248 248 248 249 248 248 249
280 279 278 277 277 276 276 275 274 273 273 273 273 274 275 275 275 275 274 272 271 270 268 267 267 266 265 263 262 260 258 256 253 250 249 249 248 247 247 248 248 248 248
282 281 279 279 278 278 277 276 275 274 274 274 273 274 275 275 275 275 274 272 270 269 268 267 266 267 265 263 262 261 259 257 253 250 248 248 248 247 247 247 248 248 248
283 282 281 280 280 278 277 276 275 275 274 274 273 273 274 275 275 274 272 272 270 268 268 268 267 266 265 263 262 261 259 257 253 250 248 247 247 247 247 247 247 248 248
283 283 282 282 281 279 278 277 275 276 276 275 273 273 273 274 274 273 272 271 269 268 267 267 266 266 264 263 262 261 259 256 253 250 248 246 246 246 247 247 247 248 248
283 283 283 283 282 280 278 277 276 276 275 275 275 274 273 273 274 272 271 270 269 267 266 266 266 266 264 263 262 260 258 255 252 250 248 247 246 246 246 247 247 247 247
283 283 283 283 282 281 280 279 278 277 277 276 275 274 273 273 273 273 271 270 267 267 266 265 265 264 263 262 261 260 257 255 251 249 248 247 246 247 246 246 246 246 248
284 283 283 283 283 283 282 282 281 280 279 278 277 274 274 273 273 273 271 269 267 266 265 264 263 264 263 261 260 259 256 254 253 250 247 247 247 247 247 246 246 246 248
285 284 284 283 283 283 283 283 282 281 280 279 279 277 275 275 274 273 270 269 268 266 265 265 264 264 262 261 260 259 256 254 253 251 249 249 248 247 246 246 246 247 248
Height
5834 5833 5833 5833 5833 5833 5833 5834 5834 5834 5834 5834 5834 5834 5835 5835 5835 5836 5836 5837 5838 5839 5839 5840 5840 5841 5842 5842 5843 5843 5844 5845 5846 5846 5847 5847 5848 5848 5849 5850 5850 5850 5851
5832 5832 5832 5832 5832 5832 5832 5832 5832 5832 5832 5832 5832 5832 5832 5833 5833 5834 5834 5835 5835 5836 5837 5838 5838 5839 5840 5840 5841 5842 5842 5843 5844 5845 5845 5846 5847 5847 5848 5848 5849 5849 5850
5830 5830 5830 5830 5830 5830 5830 5829 5829 5829 5829 5829 5829 5829 5830 5830 5830 5831 5832 5832 5833 5834 5835 5835 5836 5837 5837 5838 5839 5840 5841 5841 5842 5843 5843 5844 5845 5846 5846 5847 5847 5848 5848
5827 5827 5827 5827 5827 5827 5827 5827 5827 5826 5826 5826 5826 5827 5827 5827 5827 5828 5829 5830 5830 5831 5832 5833 5834 5834 5835 5836 5837 5837 5838 5839 5840 5841 5841 5842 5843 5844 5844 5845 5846 5846 5847
5824 5825 5825 5824 5824 5824 5824 5824 5823 5823 5823 5823 5823 5823 5824 5824 5824 5825 5826 5827 5827 5828 5829 5830 5831 5832 5832 5833 5834 5835 5836 5836 5837 5838 5839 5840 5841 5841 5842 5843 5844 5844 5845
5822 5822 5822 5822 5821 5821 5821 5821 5820 5820 5820 5820 5820 5820 5820 5821 5821 5821 5822 5823 5824 5825 5826 5827 5828 5829 5829 5830 5831 5832 5833 5834 5835 5835 5836 5837 5838 5839 5840 5840 5841 5842 5843
5819 5819 5819 5818 5818 5818 5818 5817 5817 5816 5816 5816 5816 5816 5817 5817 5817 5818 5818 5819 5820 5821 5822 5823 5824 5825 5826 5827 5828 5829 5829 5830 5831 5832 5833 5834 5835 5836 5837 5837 5838 5839 5840
5815 5815 5815 5815 5815 5814 5814 5813 5813 5813 5812 5812 5812 5812 5813 5813 5813 5814 5815 5815 5816 5817 5818 5819 5820 5821 5822 5823 5824 5825 5826 5827 5828 5829 5830 5831 5832 5833 5834 5834 5835 5836 5837
5811 5811 5811 5811 5810 5810 5810 5809 5809 5808 5808 5808 5808 5808 5808 5809 5809 5810 5810 5811 5812 5813 5814 5815 5816 5817 5818 5819 5820 5821 5822 5823 5824 5825 5826 5827 5828 5829 5830 5831 5832 5832 5833
5807 5807 5807 5806 5806 5806 5805 5805 5804 5804 5804 5803 5803 5803 5803 5804 5804 5805 5805 5806 5807 5808 5809 5810 5811 5812 5813 5814 5815 5816 5817 5818 5819 5820 5822 5823 5824 5825 5826 5827 5828 5828 5830
5802 5802 5802 5801 5801 5801 5801 5800 5800 5799 5799 5799 5798 5798 5798 5799 5799 5799 5800 5800 5801 5802 5803 5804 5805 5806 5807 5808 5809 5810 5811 5813 5814 5815 5816 5818 5819 5820 5821 5822 5823 5824 5825
5797 5797 5796 5796 5796 5795 5795 5795 5794 5794 5794 5793 5793 5793 5793 5793 5793 5793 5794 5794 5795 5795 5796 5797 5798 5799 5800 5802 5803 5804 5805 5806 5808 5809 5811 5812 5813 5814 5816 5817 5818 5819 5820
5791 5791 5791 5790 5790 5789 5789 5789 5788 5788 5787 5787 5787 5787 5787 5787 5787 5787 5787 5788 5788 5788 5789 5790 5790 5791 5793 5794 5795 5796 5798 5799 5801 5802 5804 5806 5807 5808 5810 5811 5812 5814 5815
5785 5784 5784 5783 5783 5783 5782 5782 5781 5781 5780 5780 5780 5780 5780 5780 5780 5780 5780 5780 5780 5781 5781 5781 5782 5783 5784 5785 5786 5788 5789 5791 5793 5795 5796 5798 5800 5802 5803 5805 5806 5808 5809
5778 5777 5776 5776 5775 5775 5774 5774 5774 5773 5773 5773 5772 5772 5772 5772 5772 5772 5772 5772 5772 5772 5772 5773 5773 5774 5775 5775 5777 5778 5780 5782 5784 5786 5788 5790 5792 5794 5796 5798 5800 5802 5803
5769 5769 5768 5768 5767 5766 5766 5766 5765 5765 5765 5764 5764 5764 5764 5763 5763 5763 5763 5763 5762 5762 5763 5763 5763 5764 5765 5766 5767 5769 5770 5772 5775 5777 5780 5782 5784 5786 5789 5791 5793 5795 5797
5761 5760 5759 5759 5758 5757 5757 5756 5756 5756 5756 5755 5755 5755 5754 5754 5753 5753 5753 5753 5752 5752 5752 5752 5752 5753 5754 5755 5757 5758 5760 5762 5765 5768 5770 5773 5775 5778 5780 5783 5785 5787 5790
5752 5751 5750 5749 5748 5747 5747 5746 5746 5745 5745 5745 5745 5745 5744 5743 5743 5742 5742 5742 5741 5740 5740 5741 5741 5742 5743 5744 5746 5748 5750 5752 5755 5757 5760 5763 5766 5769 5771 5774 5777 5780 5782
5742 5741 5740 5739 5738 5737 5736 5736 5735 5734 5734 5734 5734 5734 5733 5732 5732 5731 5730 5729 5729 5729 5729 5729 5730 5731 5732 5733 5735 5737 5739 5741 5744 5747 5750 5753 5756 5759 5762 5765 5768 5771 5773
5733 5731 5730 5729 5728 5727 5726 5725 5724 5723 5723 5722 5722 5722 5721 5720 5719 5719 5718 5717 5717 5717 5717 5717 5718 5719 5720 5721 5723 5725 5727 5730 5732 5735 5739 5742 5745 5749 5752 5755 5758 5761 5764
5723 5721 5719 5718 5717 5715 5714 5714 5713 5712 5711 5710 5709 5709 5708 5707 5706 5706 5705 5705 5705 5705 5705 5705 5706 5707 5708 5709 5711 5713 5715 5718 5720 5724 5727 5731 5734 5738 5741 5745 5748 5751 5755
5712 5710 5709 5707 5705 5704 5702 5701 5700 5700 5699 5698 5696 5696 5695 5694 5693 5692 5692 5692 5692 5692 5692 5693 5693 5694 5696 5697 5699 5700 5703 5707 5709 5712 5715 5719 5723 5726 5730 5734 5737 5741 5744
5702 5699 5698 5696 5694 5692 5690 5689 5687 5686 5685 5685 5684 5682 5681 5680 5679 5678 5678 5678 5678 5679 5679 5679 5680 5681 5683 5684 5685 5688 5690 5694 5697 5700 5703 5707 5710 5714 5718 5722 5726 5729 5733
5690 5688 5686 5684 5681 5679 5677 5675 5674 5673 5672 5671 5669 5668 5667 5665 5664 5664 5664 5664 5664 5664 5665 5666 5666 5667 5669 5670 5672 5674 5677 5680 5683 5688 5691 5694 5698 5701 5706 5709 5713 5717 5721
5679 5676 5674 5671 5669 5667 5664 5662 5661 5659 5658 5656 5655 5654 5652 5651 5650 5649 5649 5648 5649 5649 5650 5651 5652 5653 5654 5656 5658 5660 5662 5665 5668 5673 5678 5682 5685 5688 5692 5696 5700 5705 5708
5667 5664 5662 5659 5657 5654 5652 5650 5647 5646 5644 5642 5641 5639 5638 5636 5635 5634 5633 5633 5633 5634 5635 5636 5637 5638 5639 5641 5643 5645 5648 5651 5655 5658 5663 5668 5671 5676 5679 5682 5687 5691 5695